This is the latest recevied weather packets stored in our database for station/object CE1RLP-31. If no packets are shown the sender has not sent any weather packets the latest 10 day(s).
| Time | Temp. | Humidity | Pressure | Rain* | Wind** | Luminosity | Snow |
|---|---|---|---|---|---|---|---|
| 1777709257 | 8.89° C | 8% | 1099.9 hPa | - | - | - | - |
| 1777708356 | 8.89° C | 8% | 1099.9 hPa | - | - | - | - |
| 1777707456 | 8.89° C | 8% | 1099.8 hPa | - | - | - | - |
| 1777706556 | 8.89° C | 8% | 1099.9 hPa | - | - | - | - |
| 1777705656 | 9.44° C | 8% | 1099.9 hPa | - | - | - | - |
| 1777704756 | 8.89° C | 8% | 1101.8 hPa | - | - | - | - |
| 1777703856 | 9.44° C | 8% | 1100.1 hPa | - | - | - | - |
| 1777702956 | 8.89° C | 8% | 1100.1 hPa | - | - | - | - |
| 1777702056 | 8.89° C | 8% | 1100.2 hPa | - | - | - | - |
| 1777701156 | 8.89° C | 8% | 1100.4 hPa | - | - | - | - |
| 1777700256 | 8.89° C | 9% | 1100.6 hPa | - | - | - | - |
| 1777699356 | 9.44° C | 8% | 1100.6 hPa | - | - | - | - |
| 1777698455 | 9.44° C | 8% | 1100.7 hPa | - | - | - | - |
| 1777697556 | 9.44° C | 8% | 1100.6 hPa | - | - | - | - |
| 1777696655 | 9.44° C | 8% | 1100.7 hPa | - | - | - | - |
| 1777695755 | 9.44° C | 8% | 1100.7 hPa | - | - | - | - |
| 1777694855 | 10° C | 8% | 1100.7 hPa | - | - | - | - |
| 1777693957 | 9.44° C | 8% | 1100.8 hPa | - | - | - | - |
| 1777693057 | 9.44° C | 9% | 1100.6 hPa | - | - | - | - |
| 1777692157 | 9.44° C | 9% | 1100.7 hPa | - | - | - | - |
| 1777691257 | 9.44° C | 8% | 1100.8 hPa | - | - | - | - |
| 1777690356 | 8.89° C | 8% | 1100.8 hPa | - | - | - | - |
| 1777689456 | 8.89° C | 9% | 1100.7 hPa | - | - | - | - |
| 1777674155 | 12.22° C | 8% | 1099.9 hPa | - | - | - | - |
| 1777673255 | 12.78° C | 9% | 1099.9 hPa | - | - | - | - |
* Rain since midnight (hover to see other rain measurements)
** Current wind speed in m/s (hover to see current wind gust speed)